Weather History for Abingdon, VA

Change the Weather History Date:

Friday, October 18, 2013

  Actual Average (KTRI) Record (KTRI)
Temperature  
Mean Temperature 52 °F 56 °F  
Max Temperature 63 °F 69 °F 85 °F (1938)
Min Temperature 41 °F 43 °F 25 °F (1943)
Degree Days  
Heating Degree Days 13 10  
Month to date heating degree days 131  
Since 1 July heating degree days 184  
Cooling Degree Days 0 0  
Month to date cooling degree days 9  
Year to date cooling degree days 977  
Growing Degree Days 2 (Base 50)    
Moisture  
Dew Point 47 °F    
Average Humidity 84    
Maximum Humidity 100    
Minimum Humidity 53    
Precipitation  
Precipitation 0.00 in 0.06 in 2.22 in (1990)
Month to date precipitation 1.18  
Year to date precipitation 33.62  
Snow  
Snow 0.00 in 0.00 in - ()
Month to date snowfall 0.0  
Since 1 July snowfall 0.0  
Since 1 September snowfall 0.0  
Snow Depth -    
Sea Level Pressure  
Sea Level Pressure 30.03 in    
Wind  
Wind Speed 1 mph (WNW)    
Max Wind Speed 6 mph    
Max Gust Speed -    
Visibility 9 miles    
Events      
T = Trace of Precipitation, MM = Missing Value Source: NWS Daily Summary

Daily Weather History Graph

Daily Weather History Graph

Search for Another Location

Airport:

Trip Planner

Search our weather history database for the weather conditions in past years. The results will help you decide how hot, cold, wet, or windy it might be!

Date:

Astronomy

Oct. 18, 2013 Rise Set
Actual Time 7:38 AM EDT 6:47 PM EDT
Civil Twilight 7:12 AM EDT 7:13 PM EDT
Nautical Twilight 6:42 AM EDT 7:43 PM EDT
Astronomical Twilight 6:12 AM EDT 8:13 PM EDT
Moon 6:37 PM EDT (10/18) 7:12 AM EDT (10/18)
Length of Visible Light 12h 01m
Length of Day
11h 08m
Full, 100% of the Moon is Illuminated
Oct 18
Full
Oct 18
Full
Oct 26
Last Quarter
Nov 3
New
Nov 10
First Quarter

Hourly Weather History & Observations

Time (EDT) Temp. Dew Point Humidity Pressure Visibility Wind Dir Wind Speed Gust Speed Precip Events Conditions
12:15 AM 53.6 °F 50.7 °F 90% 30.02 in 10.0 mi NW 3.5 mph - N/A   Overcast
12:35 AM 53.6 °F 50.4 °F 89% 30.02 in 10.0 mi NW 3.5 mph - N/A   Overcast
12:55 AM 53.4 °F 50.5 °F 90% 30.02 in 10.0 mi Calm Calm - N/A   Overcast
1:15 AM 53.1 °F 50.2 °F 90% 30.01 in 10.0 mi Calm Calm - N/A   Overcast
1:35 AM 52.7 °F 49.5 °F 89% 30.02 in 10.0 mi NW 3.5 mph - N/A   Overcast
1:55 AM 52.3 °F 49.1 °F 89% 30.02 in 10.0 mi NW 4.6 mph - N/A   Overcast
2:15 AM 51.1 °F 48.9 °F 92% 30.02 in 10.0 mi WNW 3.5 mph - N/A   Overcast
2:35 AM 49.8 °F 49.1 °F 97% 30.02 in 10.0 mi Calm Calm - N/A   Overcast
2:55 AM 48.2 °F 48.2 °F 100% 30.02 in 10.0 mi Calm Calm - N/A   Mostly Cloudy
3:15 AM 48.2 °F 47.7 °F 98% 30.02 in 10.0 mi Calm Calm - N/A   Clear
3:35 AM 46.8 °F 46.8 °F 100% 30.02 in 10.0 mi Calm Calm - N/A   Clear
3:55 AM 46.4 °F 46.4 °F 100% 30.02 in 10.0 mi Calm Calm - N/A   Clear
4:15 AM 45.5 °F 45.5 °F 100% 30.02 in 10.0 mi Calm Calm - N/A   Clear
4:35 AM 45.0 °F 45.0 °F 100% 30.02 in 10.0 mi Calm Calm - N/A   Clear
4:55 AM 44.1 °F 44.1 °F 100% 30.02 in 7.0 mi Calm Calm - N/A   Clear
5:15 AM 43.2 °F 43.2 °F 100% 30.02 in 7.0 mi Calm Calm - N/A   Clear
5:35 AM 43.2 °F 43.2 °F 100% 30.03 in 7.0 mi Calm Calm - N/A   Clear
5:55 AM 42.8 °F 42.8 °F 100% 30.03 in 5.0 mi Calm Calm - N/A   Clear
6:15 AM 42.8 °F 42.8 °F 100% 30.03 in 10.0 mi Calm Calm - N/A   Clear
6:35 AM 42.3 °F 42.3 °F 100% 30.04 in 4.0 mi Calm Calm - N/A   Clear
6:55 AM 42.3 °F 42.3 °F 100% 30.05 in 5.0 mi Calm Calm - N/A   Clear
7:15 AM 42.8 °F 42.8 °F 100% 30.05 in 5.0 mi Calm Calm - N/A   Clear
7:35 AM 41.4 °F 41.4 °F 100% 30.06 in 4.0 mi Calm Calm - N/A   Clear
7:55 AM 41.0 °F 41.0 °F 100% 30.06 in 4.0 mi Calm Calm - N/A   Clear
8:15 AM 41.9 °F 41.9 °F 100% 30.06 in 5.0 mi Calm Calm - N/A   Clear
8:35 AM 43.9 °F 43.9 °F 100% 30.07 in 5.0 mi Calm Calm - N/A   Clear
8:55 AM 45.1 °F 45.1 °F 100% 30.08 in 7.0 mi Calm Calm - N/A   Clear
9:15 AM 47.5 °F 47.5 °F 100% 30.09 in 7.0 mi Calm Calm - N/A   Clear
9:35 AM 50.9 °F 49.3 °F 94% 30.09 in 10.0 mi SE 3.5 mph - N/A   Scattered Clouds
9:55 AM 52.2 °F 48.2 °F 86% 30.09 in 10.0 mi East 3.5 mph - N/A   Clear
10:15 AM 53.2 °F 47.8 °F 82% 30.09 in 10.0 mi Calm Calm - N/A   Clear
10:35 AM 54.5 °F 46.6 °F 75% 30.09 in 10.0 mi Calm Calm - N/A   Clear
10:55 AM 54.9 °F 46.9 °F 75% 30.09 in 10.0 mi Calm Calm - N/A   Scattered Clouds
11:15 AM 54.7 °F 45.3 °F 71% 30.09 in 10.0 mi Calm Calm - N/A   Clear
11:35 AM 56.7 °F 47.5 °F 71% 30.09 in 10.0 mi South 5.8 mph - N/A   Clear
11:55 AM 56.5 °F 46.8 °F 70% 30.09 in 10.0 mi Calm Calm - N/A   Scattered Clouds
12:15 PM 57.2 °F 47.3 °F 69% 30.08 in 10.0 mi Calm Calm - N/A   Scattered Clouds
12:35 PM 58.6 °F 48.4 °F 69% 30.08 in 10.0 mi ESE 4.6 mph - N/A   Scattered Clouds
12:55 PM 58.3 °F 47.5 °F 67% 30.07 in 10.0 mi West 4.6 mph - N/A   Clear
1:15 PM 59.0 °F 47.1 °F 65% 30.06 in 10.0 mi Calm Calm - N/A   Clear
1:35 PM 60.6 °F 48.0 °F 63% 30.05 in 10.0 mi Calm Calm - N/A   Clear
1:55 PM 60.1 °F 46.0 °F 60% 30.04 in 10.0 mi Calm Calm - N/A   Clear
2:15 PM 61.9 °F 47.5 °F 59% 30.03 in 10.0 mi WNW 3.5 mph - N/A   Clear
2:35 PM 61.9 °F 46.9 °F 58% 30.02 in 10.0 mi WSW 3.5 mph - N/A   Clear
2:44 PM 62.6 °F 46.4 °F 55% 30.02 in 10.0 mi SW 3.5 mph - N/A   Clear
2:55 PM 62.1 °F 46.0 °F 56% 30.02 in 10.0 mi Calm Calm - N/A   Clear
3:15 PM 63.0 °F 45.7 °F 53% 30.01 in 10.0 mi Calm Calm - N/A   Clear
3:35 PM 63.3 °F 47.5 °F 56% 30.01 in 10.0 mi NW 3.5 mph - N/A   Clear
3:55 PM 62.8 °F 46.6 °F 55% 30.00 in 10.0 mi Calm Calm - N/A   Clear
4:15 PM 63.0 °F 47.7 °F 57% 30.00 in 10.0 mi Calm Calm - N/A   Clear
4:35 PM 62.4 °F 47.3 °F 58% 30.00 in 10.0 mi Calm Calm - N/A   Clear
4:55 PM 62.4 °F 46.9 °F 57% 30.00 in 10.0 mi NNW 3.5 mph - N/A   Clear
5:15 PM 62.1 °F 47.1 °F 58% 30.00 in 10.0 mi Calm Calm - N/A   Clear
5:35 PM 61.3 °F 47.7 °F 61% 30.00 in 10.0 mi NW 3.5 mph - N/A   Clear
5:55 PM 60.4 °F 48.4 °F 64% 30.00 in 10.0 mi Calm Calm - N/A   Clear
6:15 PM 59.9 °F 50.0 °F 70% 30.00 in 10.0 mi Calm Calm - N/A   Clear
6:35 PM 57.9 °F 50.4 °F 76% 30.00 in 10.0 mi Calm Calm - N/A   Clear
6:55 PM 56.7 °F 49.5 °F 77% 29.99 in 10.0 mi Calm Calm - N/A   Clear
7:15 PM 54.1 °F 50.5 °F 88% 30.00 in 10.0 mi Calm Calm - N/A   Clear
7:35 PM 52.9 °F 50.9 °F 93% 30.00 in 10.0 mi Calm Calm - N/A   Clear
7:55 PM 52.3 °F 50.4 °F 93% 30.00 in 10.0 mi Calm Calm - N/A   Clear
8:15 PM 50.7 °F 49.5 °F 95% 30.01 in 10.0 mi Calm Calm - N/A   Clear
8:35 PM 50.4 °F 48.7 °F 94% 30.01 in 10.0 mi Calm Calm - N/A   Clear
8:55 PM 49.8 °F 48.4 °F 95% 30.01 in 10.0 mi Calm Calm - N/A   Clear
9:15 PM 49.1 °F 48.2 °F 97% 30.01 in 10.0 mi Calm Calm - N/A   Clear
9:35 PM 48.6 °F 47.8 °F 97% 30.01 in 10.0 mi Calm Calm - N/A   Clear
9:55 PM 48.4 °F 47.8 °F 98% 30.01 in 10.0 mi Calm Calm - N/A   Mostly Cloudy
10:15 PM 49.3 °F 48.2 °F 96% 30.01 in 10.0 mi Calm Calm - N/A   Overcast
10:35 PM 50.0 °F 48.4 °F 94% 30.01 in 10.0 mi Calm Calm - N/A   Overcast
10:55 PM 50.2 °F 48.7 °F 95% 30.01 in 10.0 mi Calm Calm - N/A   Overcast
11:15 PM 51.1 °F 48.9 °F 92% 30.02 in 10.0 mi Calm Calm - N/A   Overcast
11:35 PM 51.3 °F 49.6 °F 94% 30.01 in 10.0 mi Calm Calm - N/A   Overcast
11:55 PM 51.4 °F 50.4 °F 96% 30.01 in 10.0 mi Calm Calm - N/A   Overcast